Location: ??
(36.7391°N, 127.5151°E)
Time: 10:22:39
(UTC+00:00)

Cosmos 1674 Rocket - Pass Details

Date: 07 June 2020
Orbit: 603 x 630 km, 82.5° (Epoch: 03 July)

Event Time Altitude Azimuth Distance (km) Brightness Sun altitude
Rises 11:33:59 0° 180° (S) 2,865 6.6 -8.7°
Reaches altitude 10° 11:36:11 10° 178° (S) 1,969 5.8 -9.1°
Maximum altitude 11:40:32 71° 95° (E) 658 3.5 -9.7°
Drops below altitude 10° 11:44:56 10° 12° (NNE) 2,000 6.5 -10.4°
Sets 11:47:11 0° 10° (N) 2,915 7.4 -10.8°
